sat.trackr.live / text

‹ back to catalog

STARLINK-31018

NORAD 58635 · 2023-203T

PAYLOAD ACTIVE UNKNOWN

§ Identity

Operator
Country
US
Launch date
2023-12-23
Launch site
AFETR
Launch vehicle
Mass (kg)
RCS (m²)

Purposes: comms

External: N2YO · Heavens-Above · Gunter

§ Orbital elements

Epoch: 2026-05-24T23:13:13.301184Z

Period
94.27 min
Inclination
43.0028°
Eccentricity
0.0001140
Mean motion
15.27583785 rev/d
Perigee alt
482.3 km
Apogee alt
483.8 km
Semi-major
6,861.2 km
B*
3.6693e-5
RAAN
356.6179°
Arg perigee
279.0117°
Mean anomaly
81.0606°
Rev number
13,645

§ Raw data

STARLINK-310181 58635U 23203T   26144.96751506  .00000748  00000+0  36693-4 0  99922 58635  43.0028 356.6179 0001140 279.0117  81.0606 15.27583785136457

JSON: /api/v1/satellites/58635 · /tle

For live sub-satellite position, see the globe view (requires WebGL).

§ Visibility from observer

Set your observer location to see the next 7 days of passes ≥ 10°. The values pass through the URL so the page stays shareable.

No JS? Fill the form by hand. The geolocation button needs JavaScript.